| time (UTC) | temp C | wind direction | speed KPH | gust KPH | rain 1hr cm | rain 24hr cm | rain mn cm | humidity % | barometer mb |
| 20260506073041 | 11 | 5 | 3.2 | 8.0 | 0.00 | 0.00 | 0.00 | 95 | 1009.7 |
| 20260506071549 | 11 | 0 | 0.0 | 6.4 | 0.00 | 0.00 | 0.00 | 95 | 1009.5 |
| 20260506061537 | 10 | 0 | 0.0 | 0.0 | 0.00 | 0.00 | 0.00 | 95 | 1009.2 |
| 20260506044550 | 10 | 0 | 0.0 | 0.0 | 0.00 | 0.00 | 0.00 | 95 | 1008.7 |
| 20260506043040 | 10 | 0 | 0.0 | 0.0 | 0.00 | 0.00 | 0.00 | 94 | 1008.6 |
| 20260506041546 | 10 | 0 | 0.0 | 0.0 | 0.00 | 0.00 | 0.00 | 94 | 1008.7 |
| 20260506040043 | 10 | 0 | 0.0 | 0.0 | 0.00 | 0.00 | 0.00 | 94 | 1008.6 |
| 20260506034536 | 10 | 0 | 0.0 | 0.0 | 0.00 | 0.00 | 0.00 | 94 | 1008.7 |
| 20260506033036 | 10 | 0 | 0.0 | 1.6 | 0.00 | 0.00 | 0.00 | 94 | 1008.6 |
| 20260506031553 | 10 | 0 | 0.0 | 1.6 | 0.00 | 0.00 | 0.00 | 94 | 1008.8 |
| 20260506030056 | 10 | 0 | 0.0 | 3.2 | 0.00 | 0.00 | 0.00 | 94 | 1008.8 |
| 20260506024540 | 10 | 0 | 0.0 | 3.2 | 0.00 | 0.00 | 0.00 | 94 | 1008.7 |
| 20260506023038 | 10 | 0 | 0.0 | 0.0 | 0.00 | 0.00 | 0.00 | 94 | 1008.7 |
| 20260506021533 | 10 | 0 | 0.0 | 0.0 | 0.00 | 0.00 | 0.00 | 94 | 1008.8 |
| 20260506020041 | 10 | 0 | 0.0 | 3.2 | 0.00 | 0.00 | 0.00 | 94 | 1008.9 |
| 20260506014542 | 10 | 0 | 0.0 | 0.0 | 0.00 | 0.00 | 0.00 | 94 | 1008.9 |
| 20260506013044 | 10 | 0 | 0.0 | 4.8 | 0.00 | 0.00 | 0.00 | 94 | 1009.1 |
| 20260506011539 | 10 | 0 | 0.0 | 3.2 | 0.00 | 0.00 | 0.00 | 93 | 1009.1 |
| 20260506010037 | 10 | 0 | 0.0 | 4.8 | 0.00 | 0.00 | 0.00 | 93 | 1009.2 |
| 20260506004604 | 10 | 0 | 0.0 | 8.0 | 0.00 | 0.00 | 0.00 | 93 | 1009.5 |
| 20260506003034 | 10 | 153 | 1.6 | 8.0 | 0.00 | 0.00 | 0.00 | 93 | 1009.5 |
| 20260506001540 | 10 | 148 | 0.0 | 8.0 | 0.00 | 0.00 | 0.00 | 92 | 1009.4 |
| 20260506000043 | 10 | 157 | 0.0 | 6.4 | 0.00 | 0.00 | 0.00 | 92 | 1009.6 |
| 20260505234605 | 10 | 0 | 1.6 | 6.4 | 0.00 | 0.00 | 0.00 | 92 | 1009.8 |
| 20260505233036 | 10 | 0 | 0.0 | 8.0 | 0.00 | 0.00 | 0.00 | 92 | 1009.7 |
| 20260505231538 | 10 | 169 | 3.2 | 6.4 | 0.00 | 0.00 | 0.00 | 92 | 1009.8 |
| 20260505230036 | 10 | 0 | 0.0 | 1.6 | 0.00 | 0.00 | 0.00 | 91 | 1009.8 |
| 20260505224539 | 10 | 0 | 0.0 | 4.8 | 0.00 | 0.00 | 0.00 | 91 | 1009.8 |
| 20260505223052 | 11 | 0 | 0.0 | 3.2 | 0.00 | 0.00 | 0.00 | 91 | 1009.9 |
| 20260505221553 | 11 | 0 | 0.0 | 1.6 | 0.00 | 0.00 | 0.00 | 90 | 1010.0 |
| 20260505220037 | 11 | 0 | 0.0 | 1.6 | 0.00 | 0.00 | 0.00 | 90 | 1010.2 |
| 20260505215021 | 11 | 0 | 0.0 | 0.0 | 0.00 | 0.00 | 0.00 | 89 | 1010.2 |
| 20260505213035 | 11 | 0 | 0.0 | 3.2 | 0.00 | 0.00 | 0.00 | 88 | 1010.4 |
| 20260505211541 | 12 | 0 | 0.0 | 0.0 | 0.00 | 0.00 | 0.00 | 88 | 1010.6 |
| 20260505210040 | 12 | 0 | 0.0 | 4.8 | 0.00 | 0.00 | 0.00 | 87 | 1010.7 |
| 20260505204539 | 12 | 0 | 0.0 | 4.8 | 0.00 | 0.00 | 0.00 | 85 | 1010.8 |
| 20260505203037 | 12 | 248 | 3.2 | 8.0 | 0.00 | 0.00 | 0.00 | 85 | 1010.8 |
| 20260505201542 | 13 | 242 | 3.2 | 11.3 | 0.00 | 0.00 | 0.00 | 84 | 1010.7 |
| 20260505200045 | 13 | 290 | 3.2 | 12.9 | 0.00 | 0.00 | 0.00 | 83 | 1010.4 |
| 20260505194540 | 13 | 218 | 1.6 | 14.5 | 0.00 | 0.00 | 0.00 | 82 | 1010.3 |
| 20260505193038 | 13 | 278 | 3.2 | 11.3 | 0.00 | 0.00 | 0.00 | 81 | 1010.3 |
| 20260505191536 | 13 | 232 | 3.2 | 12.9 | 0.00 | 0.00 | 0.00 | 79 | 1010.0 |
| 20260505190045 | 14 | 284 | 1.6 | 14.5 | 0.00 | 0.00 | 0.00 | 78 | 1010.0 |
| 20260505185000 | 15 | 250 | 3.2 | 14.5 | 0.00 | 0.00 | 0.00 | 76 | 1009.8 |
| 20260505183045 | 15 | 172 | 4.8 | 17.7 | 0.00 | 0.00 | 0.00 | 73 | 1009.7 |
| 20260505181539 | 16 | 260 | 4.8 | 22.5 | 0.00 | 0.00 | 0.00 | 72 | 1009.6 |
| 20260505180037 | 16 | 215 | 9.7 | 22.5 | 0.00 | 0.00 | 0.00 | 70 | 1009.4 |
| 20260505174536 | 16 | 260 | 9.7 | 19.3 | 0.00 | 0.00 | 0.00 | 68 | 1009.4 |
| 20260505173046 | 17 | 238 | 8.0 | 24.1 | 0.00 | 0.00 | 0.00 | 67 | 1009.5 |
| 20260505171539 | 17 | 309 | 9.7 | 24.1 | 0.00 | 0.00 | 0.00 | 65 | 1009.5 |
| 20260505170039 | 17 | 185 | 8.0 | 25.7 | 0.00 | 0.00 | 0.00 | 65 | 1009.7 |
| 20260505164538 | 18 | 266 | 9.7 | 19.3 | 0.00 | 0.00 | 0.00 | 65 | 1009.5 |
| 20260505163043 | 18 | 288 | 8.0 | 25.7 | 0.00 | 0.00 | 0.00 | 65 | 1009.6 |
| 20260505161543 | 17 | 265 | 6.4 | 24.1 | 0.00 | 0.00 | 0.00 | 67 | 1009.7 |
| 20260505153045 | 18 | 223 | 8.0 | 20.9 | 0.00 | 0.00 | 0.00 | 62 | 1009.5 |
| 20260505151541 | 18 | 293 | 8.0 | 19.3 | 0.00 | 0.00 | 0.00 | 61 | 1009.5 |
| 20260505124545 | 18 | 238 | 4.8 | 20.9 | 0.00 | 0.03 | 0.00 | 68 | 1009.8 |
| 20260505123039 | 17 | 267 | 4.8 | 16.1 | 0.00 | 0.03 | 0.00 | 71 | 1009.7 |
| 20260505121540 | 18 | 235 | 6.4 | 17.7 | 0.00 | 0.03 | 0.00 | 67 | 1009.7 |
| 20260505120048 | 18 | 290 | 3.2 | 14.5 | 0.00 | 0.03 | 0.00 | 71 | 1009.9 |
| 20260505114544 | 17 | 245 | 4.8 | 12.9 | 0.00 | 0.25 | 0.00 | 70 | 1009.9 |
| 20260505113038 | 17 | 297 | 6.4 | 16.1 | 0.00 | 0.25 | 0.00 | 69 | 1010.1 |
| 20260505111538 | 17 | 309 | 4.8 | 16.1 | 0.00 | 0.25 | 0.00 | 72 | 1010.2 |
| 20260505101543 | 16 | 0 | 1.6 | 16.1 | 0.00 | 0.28 | 0.00 | 77 | 1010.5 |
| 20260505100040 | 16 | 290 | 4.8 | 16.1 | 0.00 | 0.28 | 0.00 | 78 | 1010.6 |
| 20260505094536 | 16 | 355 | 1.6 | 16.1 | 0.00 | 0.94 | 0.00 | 82 | 1010.6 |
| 20260505093036 | 15 | 296 | 6.4 | 16.1 | 0.00 | 0.94 | 0.00 | 81 | 1010.6 |
| 20260505091542 | 14 | 263 | 4.8 | 12.9 | 0.00 | 0.94 | 0.00 | 84 | 1010.7 |
| 20260505090044 | 14 | 273 | 0.0 | 12.9 | 0.00 | 0.94 | 0.00 | 85 | 1010.7 |
| 20260505084545 | 14 | 0 | 0.0 | 9.7 | 0.00 | 1.40 | 0.00 | 88 | 1010.7 |
| 20260505083037 | 13 | 288 | 1.6 | 12.9 | 0.00 | 1.40 | 0.00 | 89 | 1010.6 |
| 20260505081541 | 13 | 275 | 1.6 | 11.3 | 0.00 | 1.40 | 0.00 | 90 | 1010.6 |
| 20260505080040 | 13 | 247 | 1.6 | 9.7 | 0.00 | 1.40 | 0.00 | 91 | 1010.6 |
| 20260505074540 | 13 | 302 | 0.0 | 6.4 | 0.00 | 1.42 | 0.00 | 93 | 1010.5 |